This demonstration page uses our WeatherBlox Daily Observations layout. Learn more.

Left ArrowRight Arrow

39.51506, -84.39828

Hourly Observations for October 26, 2015

Temp ( °F °C ) Dew Point ( °F °C ) Humidity (%) Winds ( mph kmh ) Pressure ( in mb ) Visibility ( mi km ) Precip ( " mm )
12:15 am 00:15 Clear 43 5.9 38 3.4 84 84 N N/A 30.39 1029 10 16 N/A
12:35 am 00:35 Clear 42 5.6 38 3.4 86 86 N N/A 30.39 1029 10 16 N/A
12:55 am 00:55 Clear 43 6 38 3.5 84 84 NNE 3 6 30.39 1029 10 16 N/A
1:15 am 01:15 Clear 45 7.3 38 3.2 75 75 NNE 6 9 30.36 1028 10 16 N/A
1:35 am 01:35 Clear 45 7.4 37 3 74 74 NNE 5 7 30.36 1028 10 16 N/A
1:55 am 01:55 Clear 44 6.6 38 3.1 79 79 NNE 3 6 30.36 1028 10 16 N/A
2:15 am 02:15 Clear 43 6 37 2.5 78 78 NNE 3 6 30.39 1029 10 16 N/A
2:35 am 02:35 Clear 42 5.8 37 2.7 81 81 N 3 6 30.39 1029 10 16 N/A
2:55 am 02:55 Clear 42 5.6 36 2.2 79 79 N 5 7 30.39 1029 10 16 N/A
3:15 am 03:15 Clear 42 5.8 35 1.9 76 76 NNE 3 6 30.39 1029 10 16 N/A
3:35 am 03:35 Clear 43 6.1 35 1.6 73 73 N N/A 30.39 1029 10 16 N/A
3:55 am 03:55 Clear 43 6 36 2.1 76 76 N N/A 30.42 1030 10 16 N/A
4:15 am 04:15 Clear 42 5.8 35 1.7 75 75 N N/A 30.39 1029 10 16 N/A
4:35 am 04:35 Clear 42 5.5 37 2.5 81 81 N N/A 30.39 1029 10 16 N/A
4:55 am 04:55 Clear 40 4.5 36 2 84 84 N N/A 30.39 1029 10 16 N/A
5:15 am 05:15 Clear 39 4 36 2 87 87 N N/A 30.39 1029 10 16 N/A
5:35 am 05:35 Clear 39 4 36 2 87 87 N N/A 30.42 1030 10 16 N/A
5:55 am 05:55 Clear 40 4.6 37 2.6 87 87 N N/A 30.42 1030 10 16 N/A
6:15 am 06:15 Clear 37 2.6 32 0.2 84 84 N N/A 30.42 1030 10 16 N/A
6:35 am 06:35 Clear 39 4 36 2 87 87 NNE 3 6 30.42 1030 10 16 N/A
6:55 am 06:55 Clear 39 4 35 1.6 85 85 NNE 3 6 30.42 1030 10 16 N/A
7:15 am 07:15 Clear 40 4.7 35 1.9 82 82 N N/A 30.42 1030 10 16 N/A
7:35 am 07:35 Clear 40 4.7 35 1.7 81 81 N N/A 30.42 1030 10 16 N/A
7:55 am 07:55 Clear 40 4.7 35 1.7 81 81 N N/A 30.42 1030 10 16 N/A
8:15 am 08:15 Sunny 41 4.8 35 1.8 81 81 N N/A 30.42 1030 10 16 N/A
8:35 am 08:35 Sunny 40 4.7 35 1.7 81 81 N N/A 30.42 1030 10 16 N/A
8:55 am 08:55 Sunny 42 5.5 36 2.1 79 79 N N/A 30.42 1030 10 16 N/A
9:15 am 09:15 Sunny 43 6.3 38 3.5 82 82 ENE 3 6 30.42 1030 10 16 N/A
9:35 am 09:35 Sunny 47 8.2 40 4.2 76 76 ENE 3 6 30.39 1029 10 16 N/A
9:55 am 09:55 Sunny 49 9.6 41 4.8 72 72 NE 5 7 30.42 1030 10 16 N/A
10:15 am 10:15 Sunny 49 9.6 39 3.9 68 68 ENE 7 11 30.42 1030 10 16 N/A
10:35 am 10:35 Sunny 54 12.2 41 4.9 61 61 ENE 8 13 30.42 1030 10 16 N/A
10:55 am 10:55 Hazy 55 12.5 37 2.8 52 52 E 10 17 30.42 1030 2 3 N/A
11:15 am 11:15 Sunny 57 13.8 37 2.8 48 48 E 14 22 30.42 1030 10 16 N/A
11:35 am 11:35 Sunny 57 13.8 35 1.5 43 43 E 10 17 30.39 1029 10 16 N/A
11:55 am 11:55 Sunny 60 15.3 35 1.9 41 41 ENE 15 24 30.39 1029 10 16 N/A
12:15 pm 12:15 Sunny 60 15.3 34 1.1 38 38 E 14 22 30.39 1029 10 16 N/A
12:35 pm 12:35 Sunny 60 15.4 32 0.1 35 35 E 14 22 30.39 1029 10 16 N/A
12:55 pm 12:55 Sunny 61 16 32 undefined 34 34 E 13 20 30.36 1028 10 16 N/A
1:15 pm 13:15 Sunny 62 16.7 32 0.1 33 33 E 12 19 30.36 1028 10 16 N/A
1:35 pm 13:35 Sunny 62 16.6 31 -0.3 32 32 E 12 19 30.36 1028 10 16 N/A
1:55 pm 13:55 Sunny 62 16.9 31 -0.3 31 31 E 14 22 30.33 1027 10 16 N/A
2:15 pm 14:15 Sunny 63 17.3 31 -0.7 30 30 ENE 15 24 30.33 1027 10 16 N/A
2:35 pm 14:35 Sunny 64 18 28 -2 26 26 E 14 22 30.33 1027 10 16 N/A
2:55 pm 14:55 Sunny 65 18.2 28 -2.4 25 25 E 14 22 30.30 1026 10 16 N/A
3:15 pm 15:15 Sunny 67 19.3 28 -2.1 24 24 E 15 24 30.27 1025 10 16 N/A
3:35 pm 15:35 Sunny 67 19.5 25 -4.1 20 20 ENE 13 20 30.27 1025 10 16 N/A
3:55 pm 15:55 Sunny 67 19.5 24 -4.6 19 19 E 10 17 30.27 1025 10 16 N/A
4:15 pm 16:15 Sunny 67 19.5 25 -3.8 20 20 ENE 14 22 30.27 1025 10 16 N/A
4:35 pm 16:35 Sunny 69 20.8 28 -2.2 21 21 ENE 10 17 30.27 1025 10 16 N/A
4:55 pm 16:55 Sunny 65 18.5 25 -4 21 21 ENE 13 20 30.27 1025 10 16 N/A
5:15 pm 17:15 Sunny 65 18.1 26 -3.5 23 23 E 9 15 30.30 1026 10 16 N/A
5:35 pm 17:35 Sunny 64 17.8 27 -2.9 24 24 E 10 17 30.30 1026 10 16 N/A
5:55 pm 17:55 Sunny 62 16.8 27 -2.6 27 27 ENE 12 19 30.30 1026 10 16 N/A
6:15 pm 18:15 Sunny 61 16.3 28 -2.3 28 28 E 9 15 30.30 1026 10 16 N/A
6:35 pm 18:35 Sunny 60 15.4 28 -2 30 30 ENE 7 11 30.30 1026 10 16 N/A
6:55 pm 18:55 Clear 57 13.8 31 -0.7 37 37 E 6 9 30.30 1026 10 16 N/A
7:15 pm 19:15 Clear 57 13.8 31 -0.7 37 37 ENE 5 7 30.33 1027 10 16 N/A
7:35 pm 19:35 Clear 57 13.8 35 1.6 44 44 NE 6 9 30.33 1027 10 16 N/A
7:55 pm 19:55 Clear 55 12.5 34 1.1 46 46 NE 7 11 30.33 1027 10 16 N/A
8:15 pm 20:15 Clear 55 12.5 35 1.7 48 48 NE 5 7 30.33 1027 10 16 N/A
8:35 pm 20:35 Clear 55 12.5 35 1.6 48 48 NE 5 7 30.33 1027 10 16 N/A
8:55 pm 20:55 Clear 55 12.5 35 1.8 48 48 NNE 6 9 30.33 1027 10 16 N/A
9:15 pm 21:15 Clear 55 12.5 36 2.1 49 49 NE 6 9 30.33 1027 10 16 N/A
9:35 pm 21:35 Clear 55 12.5 35 1.6 48 48 NNE 7 11 30.33 1027 10 16 N/A
9:55 pm 21:55 Clear 55 12.5 35 1.6 48 48 NNE 6 9 30.33 1027 10 16 N/A
10:15 pm 22:15 Partly Cloudy 54 12.4 36 2 49 49 NNE 7 11 30.33 1027 10 16 N/A
10:35 pm 22:35 Mostly Cloudy 55 12.5 36 2 49 49 NNE 7 11 30.33 1027 10 16 N/A
10:55 pm 22:55 Mostly Cloudy 55 12.5 34 1.2 46 46 NNE 6 9 30.33 1027 10 16 N/A
11:15 pm 23:15 Mostly Cloudy 55 12.5 34 1.3 47 47 NE 6 9 30.33 1027 10 16 N/A
11:35 pm 23:35 Cloudy 55 12.5 33 0.8 45 45 NNE 6 9 30.33 1027 10 16 N/A
11:55 pm 23:55 Cloudy 55 12.5 33 0.6 44 44 NE 6 9 30.33 1027 10 16 N/A

Powered by AerisWeather